Weather History for KCKC - September, 2012

Change the Weather History Date:

Tuesday, September 11, 2012

  Actual Average Record
Temperature  
Mean Temperature 60 °F -  
Max Temperature 68 °F 63 °F 84 °F (1998)
Min Temperature 53 °F 45 °F 32 °F (1997)
Degree Days  
Heating Degree Days 4    
Growing Degree Days 10 (Base 50)    
Moisture  
Dew Point 51 °F    
Average Humidity 69    
Maximum Humidity 88    
Minimum Humidity 56    
Precipitation  
Precipitation 0.00 in - - ()
Sea Level Pressure  
Sea Level Pressure 29.80 in    
Wind  
Wind Speed 5 mph (South)    
Max Wind Speed 13 mph    
Max Gust Speed 22 mph    
Visibility 10 miles    
Events      
Averages and records for this station are not official NWS values.
T = Trace of Precipitation, MM = Missing Value Source: NWS Daily Summary

Daily Weather History Graph

Daily Weather History Graph

Search for Another Location

Airport or City:

Trip Planner

Search our weather history database for the weather conditions in past years. The results will help you decide how hot, cold, wet, or windy it might be!

Date:

Astronomy

Sep. 11, 2012 Rise Set
Actual Time 6:33 AM CDT 7:20 PM CDT
Civil Twilight 6:02 AM CDT 7:52 PM CDT
Nautical Twilight 5:25 AM CDT 8:29 PM CDT
Astronomical Twilight 4:45 AM CDT 9:08 PM CDT
Moon 1:34 AM CDT (9/11) 4:45 PM CDT (9/11)
Length of Visible Light 13h 49m
Length of Day
12h 47m
Waning Crescent, 21% of the Moon is Illuminated
Sep 11
Waning Crescent
Sep 15
New
Sep 22
First Quarter
Sep 29
Full
Oct 8
Last Quarter

Hourly Weather History & Observations

Time (CDT) Temp. Dew Point Humidity Pressure Visibility Wind Dir Wind Speed Gust Speed Precip Events Conditions
12:13 AM 57.2 °F 50.0 °F 77% 29.86 in 10.0 mi South 4.6 mph - N/A   Clear
12:34 AM 57.2 °F 48.2 °F 72% 29.85 in 10.0 mi South 3.5 mph - N/A   Clear
12:54 AM 57.2 °F 48.2 °F 72% 29.85 in 10.0 mi South 4.6 mph - N/A   Clear
1:14 AM 57.2 °F 48.2 °F 72% 29.85 in 10.0 mi South 4.6 mph - N/A   Clear
1:34 AM 55.4 °F 48.2 °F 77% 29.85 in 10.0 mi South 4.6 mph - N/A   Clear
1:54 AM 57.2 °F 48.2 °F 72% 29.85 in 10.0 mi South 4.6 mph - N/A   Clear
2:14 AM 55.4 °F 48.2 °F 77% 29.84 in 10.0 mi South 5.8 mph - N/A   Clear
2:33 AM 57.2 °F 48.2 °F 72% 29.84 in 10.0 mi South 5.8 mph - N/A   Clear
2:54 AM 57.2 °F 48.2 °F 72% 29.83 in 10.0 mi South 5.8 mph - N/A   Clear
3:14 AM 57.2 °F 48.2 °F 72% 29.83 in 10.0 mi South 5.8 mph - N/A   Clear
3:33 AM 57.2 °F 48.2 °F 72% 29.82 in 10.0 mi SSW 6.9 mph - N/A   Clear
3:54 AM 57.2 °F 48.2 °F 72% 29.83 in 10.0 mi SSW 5.8 mph - N/A   Clear
4:14 AM 57.2 °F 48.2 °F 72% 29.82 in 10.0 mi South 5.8 mph - N/A   Clear
4:33 AM 57.2 °F 48.2 °F 72% 29.82 in 10.0 mi SSW 5.8 mph - N/A   Clear
4:54 AM 57.2 °F 48.2 °F 72% 29.83 in 10.0 mi SSW 5.8 mph - N/A   Clear
5:14 AM 57.2 °F 48.2 °F 72% 29.82 in 10.0 mi SSW 5.8 mph - N/A   Clear
5:34 AM 57.2 °F 48.2 °F 72% 29.82 in 10.0 mi SSW 5.8 mph - N/A   Clear
5:54 AM 55.4 °F 48.2 °F 77% 29.82 in 10.0 mi SSW 5.8 mph - N/A   Clear
6:13 AM 55.4 °F 48.2 °F 77% 29.82 in 10.0 mi South 5.8 mph - N/A   Clear
6:34 AM 53.6 °F 48.2 °F 82% 29.83 in 10.0 mi South 5.8 mph - N/A   Clear
6:53 AM 53.6 °F 48.2 °F 82% 29.83 in 10.0 mi South 4.6 mph - N/A   Clear
7:14 AM 55.4 °F 48.2 °F 77% 29.82 in 10.0 mi South 4.6 mph - N/A   Clear
7:34 AM 55.4 °F 48.2 °F 77% 29.83 in 10.0 mi South 4.6 mph - N/A   Clear
7:54 AM 59.0 °F 48.2 °F 67% 29.83 in 10.0 mi South 4.6 mph - N/A   Clear
8:13 AM 60.8 °F 50.0 °F 68% 29.83 in 10.0 mi South 4.6 mph - N/A   Clear
8:34 AM 60.8 °F 50.0 °F 68% 29.83 in 10.0 mi South 6.9 mph - N/A   Clear
8:53 AM 62.6 °F 50.0 °F 63% 29.83 in 10.0 mi SSW 8.1 mph - N/A   Clear
9:05 AM 62.6 °F 48.2 °F 59% 29.82 in 10.0 mi South 9.2 mph 16.1 mph N/A   Clear
9:34 AM 64.4 °F 50.0 °F 59% 29.83 in 10.0 mi South 9.2 mph - N/A   Clear
9:54 AM 64.4 °F 50.0 °F 59% 29.83 in 10.0 mi South 10.4 mph 16.1 mph N/A   Clear
10:14 AM 64.4 °F 50.0 °F 59% 29.82 in 10.0 mi SSW 5.8 mph 16.1 mph N/A   Clear
10:33 AM 64.4 °F 50.0 °F 59% 29.82 in 10.0 mi South 10.4 mph - N/A   Clear
10:54 AM 66.2 °F 50.0 °F 56% 29.83 in 10.0 mi SSW 9.2 mph - N/A   Clear
11:13 AM 66.2 °F 50.0 °F 56% 29.83 in 10.0 mi South 9.2 mph - N/A   Clear
11:34 AM 68.0 °F 51.8 °F 56% 29.82 in 10.0 mi South 8.1 mph - N/A   Clear
11:54 AM 64.4 °F 51.8 °F 64% 29.81 in 10.0 mi South 6.9 mph - N/A   Clear
12:13 PM 64.4 °F 51.8 °F 64% 29.80 in 10.0 mi South 5.8 mph - N/A   Clear
12:34 PM 64.4 °F 51.8 °F 64% 29.80 in 10.0 mi South 5.8 mph - N/A   Clear
12:54 PM 62.6 °F 50.0 °F 63% 29.80 in 10.0 mi South 8.1 mph - N/A   Clear
1:13 PM 62.6 °F 51.8 °F 68% 29.80 in 10.0 mi South 5.8 mph - N/A   Clear
1:34 PM 66.2 °F 51.8 °F 60% 29.79 in 10.0 mi South 10.4 mph 18.4 mph N/A   Clear
1:54 PM 66.2 °F 51.8 °F 60% 29.79 in 10.0 mi South 8.1 mph - N/A   Clear
2:13 PM - - N/A% - - Calm Calm 18.4 mph N/A   Unknown
2:22 PM 66.2 °F 51.8 °F 60% 29.81 in 10.0 mi South 12.7 mph 21.9 mph N/A   Clear
2:54 PM 66.2 °F 51.8 °F 60% 29.80 in 10.0 mi South 9.2 mph - N/A   Clear
3:13 PM 64.4 °F 51.8 °F 64% 29.77 in 10.0 mi SSE 5.8 mph - N/A   Clear
3:34 PM 64.4 °F 51.8 °F 64% 29.79 in 10.0 mi South 6.9 mph - N/A   Clear
3:48 PM 66.2 °F 51.8 °F 60% 29.80 in 10.0 mi SSW 6.9 mph - N/A   Clear
4:14 PM 64.4 °F 53.6 °F 68% 29.78 in 10.0 mi South 6.9 mph - N/A   Clear
4:34 PM 64.4 °F 51.8 °F 64% 29.77 in 10.0 mi SSE 8.1 mph - N/A   Clear
4:54 PM 64.4 °F 53.6 °F 68% 29.76 in 10.0 mi SSE 4.6 mph - N/A   Clear
5:14 PM 64.4 °F 53.6 °F 68% 29.76 in 10.0 mi Calm Calm - N/A   Clear
5:33 PM 64.4 °F 53.6 °F 68% 29.75 in 10.0 mi SSE 3.5 mph - N/A   Clear
5:54 PM 66.2 °F 53.6 °F 64% 29.78 in 10.0 mi Calm Calm - N/A   Clear
6:14 PM 64.4 °F 53.6 °F 68% 29.77 in 10.0 mi Calm Calm - N/A   Clear
6:33 PM 62.6 °F 53.6 °F 72% 29.76 in 10.0 mi East 3.5 mph - N/A   Clear
6:54 PM 64.4 °F 53.6 °F 68% 29.76 in 10.0 mi Calm Calm - N/A   Clear
7:14 PM 62.6 °F 53.6 °F 72% 29.77 in 10.0 mi East 3.5 mph - N/A   Clear
7:33 PM 62.6 °F 53.6 °F 72% 29.76 in 10.0 mi ESE 3.5 mph - N/A   Clear
7:54 PM 62.6 °F 53.6 °F 72% 29.76 in 10.0 mi ESE 4.6 mph - N/A   Clear
8:14 PM 62.6 °F 53.6 °F 72% 29.77 in 10.0 mi East 3.5 mph - N/A   Clear
8:34 PM 62.6 °F 53.6 °F 72% 29.77 in 10.0 mi ESE 3.5 mph - N/A   Clear
8:53 PM 62.6 °F 51.8 °F 68% 29.77 in 10.0 mi Calm Calm - N/A   Clear
9:14 PM 62.6 °F 51.8 °F 68% 29.77 in 10.0 mi Calm Calm - N/A   Clear
9:34 PM 60.8 °F 53.6 °F 77% 29.77 in 10.0 mi Calm Calm - N/A   Clear
9:54 PM 59.0 °F 51.8 °F 77% 29.77 in 10.0 mi Calm Calm - N/A   Clear
10:14 PM 57.2 °F 53.6 °F 88% 29.77 in 10.0 mi Calm Calm - N/A   Clear
10:34 PM 57.2 °F 51.8 °F 82% 29.77 in 10.0 mi Calm Calm - N/A   Clear
10:53 PM 59.0 °F 51.8 °F 77% 29.77 in 10.0 mi West 3.5 mph - N/A   Clear
11:34 PM 59.0 °F 51.8 °F 77% 29.77 in 10.0 mi West 4.6 mph - N/A   Clear
11:54 PM 64.4 °F 53.6 °F 68% 29.77 in 10.0 mi WSW 5.8 mph - N/A   Clear